User: anonymous
Location: Hancock Field Station
(44.9202°N, 120.4259°W)
Time: 00:57:30
(UTC-07:00)
Language:

Nadezhda 4 Rocket - Orbit

View from above orbital plane
View from above orbital plane
View from above satellite
View from above satellite

Ground track
Ground track

The orbit data is extracted from the following two-line orbital elements,

1 23180U 94041B   14261.67450825  .00000123  00000-0  10688-3 0  5193
2 23180 082.9460 317.0026 0030009 153.4121 003.0224 13.77847509 14842
Epoch (UTC): 18 September 2014 16:11:17
Eccentricity: 0.0030009
inclination: 82.9460°
perigee height: 949 km
apogee height: 993 km
right ascension of ascending node: 317.0026°
argument of perigee: 153.4121°
revolutions per day: 13.77847509
mean anomaly at epoch: 3.0224°
orbit number at epoch: 1484

The dashed part of the orbit path shows where the satellite is in the earth's shadow,  

DLR